Regional Weather Roundup
Issued by NWS Green Bay, WI

Home | Current Version | Previous Version | Graphics & Text | Print | Product List | Glossary Off
Versions: 1 2 3 4 5 6 7 8 9 10 11 12 13 14 15 16 17 18 19 20 21 22 23 24 25 26 27 28 29 30 31 32 33 34 35 36 37 38 39 40 41 42 43 44 45 46 47 48 49 50

056
ASUS43 KGRB 161601
RWRGRB

NORTH-CENTRAL AND NORTHEAST WISCONSIN REGIONAL WEATHER ROUNDUP
NATIONAL WEATHER SERVICE GREEN BAY WI
1100 AM CDT MON OCT 16 2017

WIZ005-009-010>012-018-019-161700-
NORTH CENTRAL WISCONSIN

CITY           SKY/WX    TMP DP  RH WIND       PRES   REMARKS
IRONWOOD       SUNNY     50  35  56 W13       30.15F
MANITOWISH WTR NOT AVBL
ARBOR VITAE    NOT AVBL
EAGLE RIVER    NOT AVBL
LAND O LAKES   NOT AVBL
RHINELANDER    SUNNY     46  39  76 SW9       30.19F
PHILLIPS       NOT AVBL
ANTIGO         NOT AVBL
TOMAHAWK       NOT AVBL
MERRILL        NOT AVBL
$$

WIZ013-073-161700-
NORTHEAST WISCONSIN

CITY           SKY/WX    TMP DP  RH WIND       PRES   REMARKS
IRON MOUNTAIN  SUNNY     50  35  56 SW9       30.17F
MARINETTE      SUNNY     51  39  63 W7        30.23S
$$

WIZ017-030-035>037-045-161700-
CENTRAL WISCONSIN

CITY           SKY/WX    TMP DP  RH WIND       PRES   REMARKS
MEDFORD        NOT AVBL
WAUSAU         SUNNY     50  39  66 SW6       30.21F
MOSINEE        SUNNY     52  41  66 SW9       30.24F
MARSHFIELD     SUNNY     51  38  60 SW9       30.23F
WISC RAPIDS    SUNNY     52  40  63 SW9       30.26S
STEVENS POINT  NOT AVBL
WAUPACA        NOT AVBL
SHAWANO        NOT AVBL
CLINTONVILLE   NOT AVBL
WAUTOMA        SUNNY     52  40  63 SW5       30.27F
$$

WIZ038-039-048-051-161700-
FOX VALLEY

CITY           SKY/WX    TMP DP  RH WIND       PRES   REMARKS
NWS GREEN BAY  SUNNY     51  42  71 W6        30.26S
APPLETON       SUNNY     50  37  62 SW6       30.25S
OSHKOSH        SUNNY     52  39  61 SW7       30.26S
FOND DU LAC    SUNNY     54  36  50 SW8       30.27S
$$

WIZ022-050-052-161700-
EAST CENTRAL WISCONSIN

CITY           SKY/WX    TMP DP  RH WIND       PRES   REMARKS
EPHRAIM        NOT AVBL
WASHINGTON ISL NOT AVBL
STURGEON BAY   SUNNY     50  39  66 W9        30.24S
MANITOWOC      SUNNY     52  38  58 W10       30.27S
SHEBOYGAN      SUNNY     53  40  61 W8        30.26F
$$

LMZ563-521-522-541>543-161700-
LAKESHORE

STATION/POSITION TIME  TEMP    WIND        PRES    VSBY  WAVE
                       AIR SEA DIR/SP/G                  HT/PER
                 (UTC) (F)     (DEG/KT/KT) (MB)    (MI)  (FT/S)
SHEBOYGAN LKSHOR 1500   50     280/  6/  7 1025.2R
KEWAUNEE LKSHORE 1530   50     260/  7/  8 1023.4F
NORTHPORT PIER   1540   52     270/  3/  9 1023.0S
N MID LAKE BUOY  1450   50 60  250/ 14/ 17 1023.9R         2/ 3
S GREEN BAY BUOY 1530   48 58  230/ 10/ 12 1023.7F
SISTER BAY LKSHO 1519   57     300/  8/  9   N/A
MENOMINEE LKSHOR 1524   48     220/  7/ 10 1023.3
$$




USA.gov is the U.S. government's official web portal to all federal, state and local government web resources and services.